Weather History for Fortuna, CA

Change the Weather History Date:

Wednesday, July 10, 2013

  Actual Average (KEKA) Record (KEKA)
Temperature  
Mean Temperature 54 °F 58 °F  
Max Temperature 60 °F 63 °F 70 °F (2005)
Min Temperature 48 °F 52 °F 45 °F (1887)
Degree Days  
Heating Degree Days 11 8  
Month to date heating degree days 80  
Since 1 June heating degree days 346  
Since 1 July heating degree days 80  
Cooling Degree Days 0 0  
Month to date cooling degree days 0  
Year to date cooling degree days 0  
Since 1 June cooling degree days 0  
Growing Degree Days 4 (Base 50)    
Moisture  
Dew Point 50 °F    
Average Humidity 94    
Maximum Humidity 100    
Minimum Humidity 77    
Precipitation  
Precipitation 0.00 in 0.01 in 0.14 in (1891)
Month to date precipitation 0.08  
Year to date precipitation 23.36  
Since 1 July precipitation 0.08  
Snow  
Snow 0.00 in 0.00 in 0.00 in (2002)
Month to date snowfall 0.0  
Since 1 June snowfall 0.0  
Since 1 July snowfall 0.0  
Snow Depth -    
Sea Level Pressure  
Sea Level Pressure 30.00 in    
Wind  
Wind Speed - (North)    
Max Wind Speed -    
Max Gust Speed -    
Visibility 4 miles    
Events      
T = Trace of Precipitation, MM = Missing Value Source: NWS Daily Summary

Daily Weather History Graph

Daily Weather History Graph

Search for Another Location

Airport:

Trip Planner

Search our weather history database for the weather conditions in past years. The results will help you decide how hot, cold, wet, or windy it might be!

Date:

Astronomy

Jul. 10, 2013 Rise Set
Actual Time 5:55 AM PDT 8:48 PM PDT
Civil Twilight 5:22 AM PDT 9:20 PM PDT
Nautical Twilight 4:41 AM PDT 10:01 PM PDT
Astronomical Twilight 3:53 AM PDT 10:49 PM PDT
Moon 8:22 AM PDT (7/10) 10:00 PM PDT (7/10)
Length of Visible Light 15h 58m
Length of Day
14h 53m
Waxing Crescent, 6% of the Moon is Illuminated
Jul 10
Waxing Crescent
Jul 15
First Quarter
Jul 22
Full
Jul 29
Last Quarter
Aug 6
New

Hourly Weather History & Observations

Time (PDT) Temp. Dew Point Humidity Pressure Visibility Wind Dir Wind Speed Gust Speed Precip Events Conditions
12:15 AM 50.0 °F 50.0 °F 100% 30.02 in 0.2 mi North - - N/A   Overcast
12:35 AM 48.2 °F 48.2 °F 100% 30.02 in 0.2 mi North - - N/A   Overcast
12:55 AM 48.2 °F 48.2 °F 100% 30.01 in 0.2 mi North - - N/A   Overcast
1:15 AM 48.2 °F 48.2 °F 100% 30.00 in 0.2 mi North - - N/A   Overcast
1:35 AM 48.2 °F 48.2 °F 100% 30.00 in 0.2 mi North - - N/A   Overcast
1:55 AM 48.2 °F 48.2 °F 100% 30.00 in 0.2 mi North - - N/A   Overcast
2:15 AM 48.2 °F 48.2 °F 100% 30.00 in 0.2 mi North - - N/A   Overcast
2:35 AM 48.2 °F 48.2 °F 100% 30.00 in 0.2 mi North - - N/A   Overcast
2:55 AM 48.2 °F 48.2 °F 100% 30.00 in 0.2 mi North - - N/A   Overcast
3:15 AM 48.2 °F 48.2 °F 100% 29.99 in 0.2 mi North - - N/A   Overcast
3:35 AM 48.2 °F 48.2 °F 100% 29.99 in 0.2 mi North - - N/A   Overcast
3:55 AM 48.2 °F 48.2 °F 100% 30.00 in 0.2 mi North - - N/A   Overcast
4:15 AM 48.2 °F 48.2 °F 100% 29.99 in 0.2 mi North - - N/A   Overcast
4:35 AM 48.2 °F 48.2 °F 100% 29.99 in 0.2 mi North - - N/A   Overcast
4:55 AM 48.2 °F 48.2 °F 100% 29.99 in 0.2 mi North - - N/A   Overcast
5:15 AM 48.2 °F 48.2 °F 100% 29.99 in 0.2 mi North - - N/A   Overcast
5:35 AM 48.2 °F 48.2 °F 100% 29.99 in 0.2 mi North - - N/A   Overcast
5:55 AM 48.2 °F 48.2 °F 100% 29.99 in 0.2 mi North - - N/A   Overcast
6:15 AM 48.2 °F 48.2 °F 100% 29.99 in 0.2 mi North - - N/A   Overcast
6:35 AM 48.2 °F 48.2 °F 100% 29.99 in 0.2 mi North - - N/A   Overcast
6:55 AM 48.2 °F 48.2 °F 100% 30.00 in 0.2 mi North - - N/A   Overcast
7:15 AM 48.2 °F 48.2 °F 100% 30.00 in 0.2 mi North - - N/A   Overcast
7:35 AM 48.2 °F 48.2 °F 100% 30.00 in 0.2 mi North - - N/A   Overcast
7:55 AM 48.2 °F 48.2 °F 100% 30.00 in 0.2 mi North - - N/A   Overcast
8:15 AM 48.2 °F 48.2 °F 100% 30.01 in 0.2 mi North - - N/A   Overcast
8:35 AM 48.2 °F 48.2 °F 100% 30.01 in 0.2 mi North - - N/A   Overcast
8:55 AM 48.2 °F 48.2 °F 100% 30.01 in 0.2 mi North - - N/A   Overcast
9:15 AM 50.0 °F 50.0 °F 100% 30.01 in 0.2 mi North - - N/A   Overcast
9:35 AM 50.0 °F 50.0 °F 100% 30.01 in 0.2 mi North - - N/A   Overcast
9:55 AM 50.0 °F 50.0 °F 100% 30.00 in 0.2 mi North - - N/A   Overcast
10:15 AM 51.8 °F 51.8 °F 100% 30.00 in 0.2 mi North - - N/A   Overcast
10:35 AM 53.6 °F 53.6 °F 100% 30.00 in 8.0 mi North - - N/A   Overcast
10:55 AM 53.6 °F 53.6 °F 100% 30.00 in 10.0 mi North - - N/A   Overcast
11:15 AM 55.4 °F 55.4 °F 100% 30.00 in 10.0 mi North - - N/A   Overcast
11:35 AM 55.4 °F 55.4 °F 100% 30.00 in 10.0 mi North - - N/A   Overcast
11:55 AM 57.2 °F 53.6 °F 88% 30.00 in 10.0 mi North - - N/A   Mostly Cloudy
12:15 PM 60.8 °F 55.4 °F 82% 30.00 in 10.0 mi North - - N/A   Partly Cloudy
12:35 PM 59.0 °F 55.4 °F 88% 29.99 in 9.0 mi North - - N/A   Clear
12:55 PM 60.8 °F 53.6 °F 77% 29.99 in 9.0 mi North - - N/A   Clear
1:15 PM 60.8 °F 55.4 °F 82% 29.98 in 9.0 mi North - - N/A   Clear
1:35 PM 60.8 °F 55.4 °F 82% 29.98 in 9.0 mi North - - N/A   Clear
1:55 PM 60.8 °F 53.6 °F 77% 29.98 in 9.0 mi North - - N/A   Clear
2:15 PM 59.0 °F 53.6 °F 82% 29.98 in 10.0 mi North - - N/A   Clear
2:35 PM 59.0 °F 53.6 °F 82% 29.97 in 10.0 mi North - - N/A   Clear
2:55 PM 59.0 °F 53.6 °F 82% 29.97 in 10.0 mi North - - N/A   Clear
3:15 PM 59.0 °F 53.6 °F 82% 29.97 in 10.0 mi North - - N/A   Clear
3:35 PM 57.2 °F 51.8 °F 82% 29.97 in 10.0 mi North - - N/A   Scattered Clouds
3:55 PM 57.2 °F 51.8 °F 82% 29.97 in 10.0 mi North - - N/A   Overcast
4:15 PM 55.4 °F 51.8 °F 88% 29.97 in 10.0 mi North - - N/A   Overcast
4:35 PM 55.4 °F 51.8 °F 88% 29.97 in 8.0 mi North - - N/A   Overcast
4:55 PM 55.4 °F 51.8 °F 88% 29.97 in 6.0 mi North - - N/A   Overcast
5:15 PM 55.4 °F 50.0 °F 82% 29.97 in 7.0 mi North - - N/A   Overcast
5:35 PM 53.6 °F 50.0 °F 88% 29.98 in 5.0 mi North - - N/A   Overcast
5:55 PM 53.6 °F 50.0 °F 88% 29.98 in 6.0 mi North - - N/A   Overcast
6:15 PM 53.6 °F 50.0 °F 88% 29.98 in 5.0 mi North - - N/A   Overcast
6:35 PM 53.6 °F 50.0 °F 88% 29.99 in 5.0 mi North - - N/A   Overcast
6:55 PM 53.6 °F 50.0 °F 88% 29.99 in 6.0 mi North - - N/A   Overcast
7:15 PM 53.6 °F 50.0 °F 88% 29.99 in 6.0 mi North - - N/A   Overcast
7:35 PM 53.6 °F 50.0 °F 88% 30.00 in 5.0 mi North - - N/A   Overcast
7:55 PM 53.6 °F 50.0 °F 88% 30.00 in 5.0 mi North - - N/A   Overcast
8:15 PM 53.6 °F 50.0 °F 88% 30.00 in 5.0 mi North - - N/A   Overcast
8:35 PM 51.8 °F 50.0 °F 94% 30.00 in 5.0 mi North - - N/A   Overcast
8:55 PM 51.8 °F 50.0 °F 94% 30.00 in 5.0 mi North - - N/A   Overcast
9:15 PM 51.8 °F 50.0 °F 94% 30.01 in 6.0 mi North - - N/A   Overcast
9:35 PM 51.8 °F 50.0 °F 94% 30.01 in 6.0 mi North - - N/A   Overcast
9:55 PM 51.8 °F 50.0 °F 94% 30.02 in 5.0 mi North - - N/A   Overcast
10:15 PM 51.8 °F 50.0 °F 94% 30.01 in 7.0 mi North - - N/A   Overcast
10:35 PM 51.8 °F 50.0 °F 94% 30.02 in 7.0 mi North - - N/A   Overcast
10:55 PM 51.8 °F 50.0 °F 94% 30.02 in 6.0 mi North - - N/A   Overcast
11:15 PM 51.8 °F 50.0 °F 94% 30.01 in 7.0 mi North - - N/A   Overcast
11:35 PM 51.8 °F 50.0 °F 94% 30.01 in 8.0 mi North - - N/A   Overcast
11:55 PM 51.8 °F 50.0 °F 94% 30.01 in 8.0 mi North - - N/A   Overcast